| time (UTC) | temp F | wind direction | speed knots | gust knots | rain 1hr in | rain 24hr in | rain mn in | humidity % | barometer mb |
| 20260510190002 | 73 | 39 | 5.2 | 12.2 | 0.00 | 0.00 | 0.00 | 44 | 1021.7 |
| 20260510181500 | 73 | 30 | 5.2 | 14.8 | 0.00 | 0.00 | 0.00 | 47 | 1021.0 |
| 20260510180002 | 70 | 39 | 7.8 | 16.5 | 0.00 | 0.00 | 0.00 | 49 | 1020.9 |
| 20260510174501 | 70 | 33 | 6.1 | 17.4 | 0.00 | 0.00 | 0.00 | 49 | 1020.6 |
| 20260510172959 | 70 | 354 | 4.3 | 15.6 | 0.00 | 0.00 | 0.00 | 49 | 1020.2 |
| 20260510171500 | 71 | 42 | 5.2 | 14.8 | 0.00 | 0.00 | 0.00 | 48 | 1021.2 |
| 20260510170002 | 70 | 321 | 7.0 | 19.1 | 0.00 | 0.00 | 0.00 | 50 | 1021.3 |
| 20260510164501 | 69 | 82 | 7.8 | 16.5 | 0.00 | 0.00 | 0.00 | 51 | 1020.9 |
| 20260510163000 | 68 | 8 | 5.2 | 17.4 | 0.00 | 0.00 | 0.00 | 54 | 1020.8 |
| 20260510161459 | 66 | 15 | 8.7 | 19.1 | 0.00 | 0.00 | 0.00 | 54 | 1020.1 |
| 20260510160002 | 66 | 20 | 5.2 | 15.6 | 0.00 | 0.00 | 0.00 | 52 | 1020.2 |
| 20260510154459 | 66 | 349 | 7.0 | 19.1 | 0.00 | 0.00 | 0.00 | 52 | 1020.5 |
| 20260510152959 | 66 | 347 | 5.2 | 14.8 | 0.00 | 0.00 | 0.00 | 52 | 1020.7 |
| 20260510144459 | 65 | 338 | 6.1 | 14.8 | 0.00 | 0.00 | 0.00 | 53 | 1020.6 |
| 20260510143001 | 65 | 13 | 7.0 | 19.1 | 0.00 | 0.00 | 0.00 | 53 | 1020.3 |
| 20260510141459 | 65 | 78 | 7.8 | 17.4 | 0.00 | 0.00 | 0.00 | 52 | 1020.0 |
| 20260510134459 | 66 | 321 | 5.2 | 18.2 | 0.00 | 0.00 | 0.00 | 49 | 1019.0 |
| 20260510133000 | 67 | 25 | 3.5 | 19.1 | 0.00 | 0.00 | 0.00 | 47 | 1018.5 |
| 20260510130002 | 68 | 26 | 4.3 | 17.4 | 0.00 | 0.00 | 0.00 | 45 | 1017.4 |
| 20260510124501 | 68 | 315 | 4.3 | 15.6 | 0.00 | 0.00 | 0.00 | 44 | 1016.5 |
| 20260510123001 | 69 | 23 | 2.6 | 21.7 | 0.00 | 0.00 | 0.00 | 40 | 1015.3 |
| 20260510121500 | 69 | 30 | 1.7 | 13.9 | 0.00 | 0.00 | 0.00 | 43 | 1014.9 |
| 20260510114459 | 69 | 314 | 0.0 | 3.5 | 0.00 | 0.00 | 0.00 | 32 | 1013.5 |
| 20260510113001 | 70 | 30 | 0.0 | 27.8 | 0.00 | 0.00 | 0.00 | 30 | 1012.6 |
| 20260510111459 | 72 | 33 | 3.5 | 36.5 | 0.00 | 0.00 | 0.00 | 27 | 1012.4 |
| 20260510105959 | 73 | 300 | 0.0 | 143.4 | 0.00 | 0.00 | 0.00 | 25 | 1011.6 |
| 20260510102959 | 75 | 42 | 0.0 | 4.3 | 0.00 | 0.00 | 0.00 | 22 | 1011.5 |
| 20260510101459 | 77 | 264 | 0.0 | 5.2 | 0.00 | 0.00 | 0.00 | 20 | 1011.3 |
| 20260510095959 | 78 | 304 | 0.9 | 3.5 | 0.00 | 0.00 | 0.00 | 19 | 1011.6 |
| 20260510094500 | 78 | 322 | 0.0 | 2.6 | 0.00 | 0.00 | 0.00 | 19 | 1011.4 |
| 20260510092959 | 78 | 238 | 0.0 | 6.1 | 0.00 | 0.00 | 0.00 | 20 | 1010.5 |
| 20260510091459 | 77 | 110 | 0.0 | 0.9 | 0.00 | 0.00 | 0.00 | 20 | 1010.5 |
| 20260510084500 | 78 | 33 | 0.0 | 6.1 | 0.00 | 0.00 | 0.00 | 20 | 1010.3 |
| 20260510083000 | 78 | 16 | 1.7 | 9.6 | 0.00 | 0.00 | 0.00 | 21 | 1010.3 |
| 20260510081501 | 76 | 25 | 2.6 | 16.5 | 0.00 | 0.00 | 0.00 | 24 | 1010.8 |
| 20260510080001 | 77 | 132 | 0.9 | 7.8 | 0.00 | 0.00 | 0.00 | 22 | 1010.7 |
| 20260510074501 | 75 | 246 | 0.0 | 0.0 | 0.00 | 0.00 | 0.00 | 23 | 1010.4 |
| 20260510072959 | 75 | 248 | 0.0 | 0.9 | 0.00 | 0.00 | 0.00 | 23 | 1010.6 |
| 20260510071500 | 76 | 267 | 0.0 | 0.9 | 0.00 | 0.00 | 0.00 | 22 | 1010.7 |
| 20260510065959 | 74 | 158 | 0.0 | 0.0 | 0.00 | 0.00 | 0.00 | 24 | 1010.7 |
| 20260510064459 | 75 | 160 | 0.0 | 0.0 | 0.00 | 0.00 | 0.00 | 24 | 1010.8 |
| 20260510061459 | 75 | 243 | 0.0 | 0.0 | 0.00 | 0.00 | 0.00 | 22 | 1010.9 |
| 20260510054501 | 75 | 100 | 0.0 | 0.9 | 0.00 | 0.00 | 0.00 | 24 | 1010.4 |
| 20260510053001 | 74 | 252 | 0.0 | 0.9 | 0.00 | 0.00 | 0.00 | 26 | 1010.9 |
| 20260510051501 | 75 | 311 | 0.0 | 0.0 | 0.00 | 0.00 | 0.00 | 26 | 1010.5 |
| 20260510050001 | 75 | 96 | 0.0 | 0.0 | 0.00 | 0.00 | 0.00 | 25 | 1010.7 |
| 20260510044459 | 77 | 307 | 0.0 | 0.0 | 0.00 | 0.00 | 0.00 | 22 | 1010.9 |
| 20260510041500 | 77 | 214 | 0.0 | 0.0 | 0.00 | 0.00 | 0.00 | 24 | 1010.8 |
| 20260510040000 | 78 | 212 | 0.0 | 0.0 | 0.00 | 0.00 | 0.00 | 21 | 1010.8 |
| 20260510033001 | 83 | 230 | 0.0 | 1.7 | 0.00 | 0.00 | 0.00 | 16 | 1010.4 |
| 20260510031500 | 85 | 194 | 0.0 | 5.2 | 0.00 | 0.00 | 0.00 | 14 | 1010.3 |
| 20260510030002 | 83 | 127 | 0.9 | 9.6 | 0.00 | 0.00 | 0.00 | 15 | 1010.0 |
| 20260510022959 | 81 | 166 | 0.0 | 0.0 | 0.00 | 0.00 | 0.00 | 18 | 1009.7 |
| 20260510021500 | 81 | 195 | 0.0 | 0.9 | 0.00 | 0.00 | 0.00 | 18 | 1009.5 |
| 20260510020002 | 83 | 186 | 0.0 | 0.0 | 0.00 | 0.00 | 0.00 | 18 | 1009.4 |
| 20260510014501 | 84 | 170 | 0.0 | 0.9 | 0.00 | 0.00 | 0.00 | 17 | 1009.2 |
| 20260510011500 | 87 | 184 | 0.0 | 2.6 | 0.00 | 0.00 | 0.00 | 15 | 1009.1 |
| 20260510010003 | 89 | 205 | 0.9 | 3.5 | 0.00 | 0.00 | 0.00 | 15 | 1008.9 |
| 20260510002959 | 91 | 194 | 0.0 | 1.7 | 0.00 | 0.00 | 0.00 | 14 | 1009.0 |
| 20260509234500 | 94 | 227 | 1.7 | 8.7 | 0.00 | 0.00 | 0.00 | 12 | 1009.3 |
| 20260509233002 | 93 | 224 | 0.9 | 4.3 | 0.00 | 0.00 | 0.00 | 13 | 1009.4 |
| 20260509231501 | 94 | 154 | 0.9 | 6.1 | 0.00 | 0.00 | 0.00 | 13 | 1009.3 |
| 20260509230000 | 94 | 189 | 1.7 | 9.6 | 0.00 | 0.00 | 0.00 | 13 | 1009.4 |
| 20260509224500 | 94 | 203 | 2.6 | 7.8 | 0.00 | 0.00 | 0.00 | 13 | 1009.6 |
| 20260509223000 | 94 | 156 | 3.5 | 11.3 | 0.00 | 0.00 | 0.00 | 13 | 1009.7 |
| 20260509221500 | 94 | 198 | 1.7 | 9.6 | 0.00 | 0.00 | 0.00 | 12 | 1009.9 |
| 20260509220003 | 94 | 236 | 0.9 | 10.4 | 0.00 | 0.00 | 0.00 | 12 | 1010.2 |
| 20260509214501 | 93 | 270 | 1.7 | 7.8 | 0.00 | 0.00 | 0.00 | 12 | 1010.4 |
| 20260509212959 | 93 | 205 | 1.7 | 8.7 | 0.00 | 0.00 | 0.00 | 12 | 1010.7 |
| 20260509211500 | 93 | 151 | 0.9 | 7.0 | 0.00 | 0.00 | 0.00 | 13 | 1010.9 |
| 20260509204502 | 92 | 229 | 2.6 | 7.8 | 0.00 | 0.00 | 0.00 | 13 | 1011.3 |
| 20260509203001 | 93 | 262 | 1.7 | 8.7 | 0.00 | 0.00 | 0.00 | 14 | 1011.7 |
| 20260509201501 | 93 | 217 | 2.6 | 7.8 | 0.00 | 0.00 | 0.00 | 14 | 1011.8 |
| 20260509200002 | 92 | 219 | 1.7 | 8.7 | 0.00 | 0.00 | 0.00 | 14 | 1012.0 |
| 20260509194459 | 92 | 121 | 1.7 | 8.7 | 0.00 | 0.00 | 0.00 | 15 | 1012.1 |
| 20260509192959 | 91 | 217 | 0.9 | 5.2 | 0.00 | 0.00 | 0.00 | 14 | 1012.3 |